| time (UTC) | temp F | wind direction | speed knots | gust knots | rain 1hr in | rain 24hr in | rain mn in | humidity % | barometer mb |
| 20260904043602 | 76 | 303 | 1.7 | 2.6 | 0.00 | 0.14 | 0.03 | 90 | 1010.6 |
| 20260904042402 | 78 | 34 | 0.0 | 0.0 | 0.00 | 0.14 | 0.03 | 83 | 1010.7 |
| 20260904041203 | 77 | 342 | 1.7 | 5.2 | 0.00 | 0.14 | 0.03 | 87 | 1010.8 |
| 20260904040003 | 77 | 285 | 0.9 | 2.6 | 0.00 | 0.14 | 0.03 | 84 | 1010.7 |
| 20260904034804 | 77 | 120 | 1.7 | 2.6 | 0.00 | 0.14 | 0.03 | 87 | 1010.6 |
| 20260904033603 | 77 | 30 | 0.0 | 0.0 | 0.00 | 0.15 | 0.03 | 88 | 1010.5 |
| 20260904032403 | 76 | 359 | 2.6 | 5.2 | 0.00 | 0.15 | 0.03 | 91 | 1010.6 |
| 20260904031202 | 76 | 40 | 0.9 | 0.9 | 0.01 | 0.15 | 0.03 | 86 | 1010.9 |
| 20260904030003 | 75 | 132 | 0.9 | 1.7 | 0.01 | 0.15 | 0.03 | 91 | 1010.7 |
| 20260904024802 | 75 | 141 | 2.6 | 4.3 | 0.01 | 0.15 | 0.03 | 94 | 1010.9 |
| 20260904023602 | 75 | 104 | 0.9 | 1.7 | 0.01 | 0.15 | 0.03 | 95 | 1010.9 |
| 20260904022402 | 74 | 329 | 2.6 | 5.2 | 0.01 | 0.15 | 0.03 | 97 | 1011.0 |
| 20260904021202 | 69 | 300 | 2.6 | 4.3 | 0.00 | 0.14 | 0.02 | 99 | 1011.0 |
| 20260904020003 | 69 | 300 | 2.6 | 4.3 | 0.00 | 0.14 | 0.02 | 99 | 1011.9 |
| 20260904014803 | 69 | 300 | 2.6 | 4.3 | 0.00 | 0.14 | 0.02 | 99 | 1011.8 |
| 20260904013603 | 69 | 300 | 2.6 | 4.3 | 0.00 | 0.14 | 0.02 | 99 | 1011.9 |
| 20260904012402 | 69 | 300 | 2.6 | 4.3 | 0.00 | 0.14 | 0.02 | 99 | 1011.9 |
| 20260904011201 | 69 | 300 | 2.6 | 4.3 | 0.00 | 0.14 | 0.02 | 99 | 1011.8 |
| 20260904010002 | 69 | 300 | 2.6 | 4.3 | 0.00 | 0.14 | 0.02 | 99 | 1011.8 |
| 20260904004801 | 69 | 300 | 2.6 | 4.3 | 0.00 | 0.14 | 0.02 | 99 | 1012.1 |
| 20260904003601 | 69 | 300 | 2.6 | 4.3 | 0.00 | 0.14 | 0.02 | 99 | 1012.4 |
| 20260904002400 | 69 | 300 | 2.6 | 4.3 | 0.00 | 0.14 | 0.02 | 99 | 1012.7 |
| 20260904001203 | 69 | 300 | 2.6 | 4.3 | 0.00 | 0.14 | 0.02 | 99 | 1012.6 |
| 20260904000004 | 69 | 300 | 2.6 | 4.3 | 0.00 | 0.14 | 0.02 | 99 | 1012.6 |
| 20260903234804 | 69 | 300 | 2.6 | 4.3 | 0.00 | 0.14 | 0.02 | 99 | 1012.4 |
| 20260903233605 | 69 | 300 | 2.6 | 4.3 | 0.00 | 0.14 | 0.02 | 99 | 1012.4 |
| 20260903232404 | 69 | 300 | 2.6 | 4.3 | 0.00 | 0.14 | 0.02 | 99 | 1012.1 |
| 20260903231204 | 69 | 300 | 2.6 | 4.3 | 0.00 | 0.14 | 0.02 | 99 | 1012.1 |
| 20260903230002 | 69 | 300 | 2.6 | 4.3 | 0.00 | 0.14 | 0.02 | 99 | 1012.0 |
| 20260903224802 | 69 | 300 | 2.6 | 4.3 | 0.00 | 0.14 | 0.02 | 99 | 1012.1 |
| 20260903223605 | 69 | 300 | 2.6 | 4.3 | 0.00 | 0.14 | 0.02 | 99 | 1012.5 |
| 20260903222403 | 69 | 300 | 2.6 | 4.3 | 0.00 | 0.14 | 0.02 | 99 | 1012.5 |
| 20260903221203 | 69 | 300 | 2.6 | 4.3 | 0.00 | 0.14 | 0.02 | 99 | 1012.0 |
| 20260903220003 | 69 | 300 | 2.6 | 4.3 | 0.00 | 0.14 | 0.02 | 99 | 1012.1 |
| 20260903214802 | 69 | 300 | 2.6 | 4.3 | 0.00 | 0.14 | 0.02 | 99 | 1012.0 |
| 20260903213603 | 69 | 300 | 2.6 | 4.3 | 0.00 | 0.14 | 0.02 | 99 | 1011.9 |
| 20260903212403 | 69 | 300 | 2.6 | 4.3 | 0.00 | 0.14 | 0.02 | 99 | 1011.4 |
| 20260903211202 | 69 | 300 | 2.6 | 4.3 | 0.00 | 0.14 | 0.02 | 99 | 1011.2 |
| 20260903210002 | 69 | 300 | 2.6 | 4.3 | 0.01 | 0.14 | 0.02 | 99 | 1011.6 |
| 20260903204803 | 69 | 300 | 2.6 | 4.3 | 0.01 | 0.14 | 0.02 | 99 | 1011.4 |
| 20260903203603 | 69 | 300 | 2.6 | 4.3 | 0.01 | 0.14 | 0.02 | 99 | 1011.3 |
| 20260903202402 | 69 | 300 | 2.6 | 4.3 | 0.01 | 0.14 | 0.02 | 99 | 1010.5 |
| 20260903201202 | 69 | 222 | 1.7 | 2.6 | 0.01 | 0.14 | 0.02 | 99 | 1010.7 |
| 20260903200002 | 69 | 98 | 0.9 | 1.7 | 0.00 | 0.13 | 0.01 | 99 | 1010.6 |
| 20260903194803 | 69 | 127 | 1.7 | 2.6 | 0.00 | 0.13 | 0.01 | 99 | 1010.0 |
| 20260903193603 | 69 | 25 | 0.9 | 1.7 | 0.00 | 0.13 | 0.01 | 99 | 1010.3 |
| 20260903192404 | 69 | 159 | 0.9 | 1.7 | 0.00 | 0.13 | 0.01 | 99 | 1010.9 |
| 20260903191203 | 69 | 147 | 2.6 | 4.3 | 0.00 | 0.13 | 0.01 | 99 | 1010.2 |
| 20260903190003 | 69 | 139 | 1.7 | 4.3 | 0.00 | 0.13 | 0.01 | 99 | 1009.8 |
| 20260903184804 | 69 | 5 | 1.7 | 1.7 | 0.00 | 0.13 | 0.01 | 99 | 1009.6 |
| 20260903183603 | 69 | 287 | 0.0 | 1.7 | 0.00 | 0.13 | 0.01 | 99 | 1009.6 |
| 20260903182402 | 69 | 287 | 0.9 | 1.7 | 0.00 | 0.13 | 0.01 | 99 | 1009.5 |
| 20260903181202 | 69 | 320 | 0.0 | 0.0 | 0.00 | 0.13 | 0.01 | 99 | 1009.5 |
| 20260903180002 | 69 | 103 | 0.0 | 1.7 | 0.00 | 0.13 | 0.01 | 99 | 1009.6 |
| 20260903174803 | 69 | 259 | 1.7 | 2.6 | 0.00 | 0.13 | 0.01 | 99 | 1009.9 |
| 20260903173603 | 69 | 332 | 0.0 | 0.0 | 0.00 | 0.13 | 0.01 | 99 | 1009.6 |
| 20260903172403 | 69 | 313 | 1.7 | 2.6 | 0.00 | 0.13 | 0.01 | 99 | 1009.4 |
| 20260903171202 | 69 | 296 | 0.9 | 1.7 | 0.00 | 0.13 | 0.01 | 99 | 1009.6 |
| 20260903170002 | 69 | 358 | 0.9 | 2.6 | 0.00 | 0.13 | 0.01 | 99 | 1009.4 |
| 20260903164803 | 69 | 98 | 2.6 | 4.3 | 0.00 | 0.13 | 0.01 | 99 | 1009.4 |
| 20260903163603 | 69 | 56 | 1.7 | 2.6 | 0.00 | 0.13 | 0.01 | 99 | 1009.8 |
| 20260903162403 | 70 | 39 | 2.6 | 4.3 | 0.00 | 0.13 | 0.01 | 99 | 1009.6 |
| 20260903161202 | 70 | 120 | 0.9 | 1.7 | 0.01 | 0.13 | 0.01 | 99 | 1009.3 |
| 20260903160003 | 70 | 318 | 2.6 | 4.3 | 0.01 | 0.13 | 0.01 | 99 | 1009.4 |
| 20260903154803 | 70 | 302 | 2.6 | 5.2 | 0.00 | 0.13 | 0.01 | 99 | 1009.5 |
| 20260903153602 | 70 | 285 | 0.0 | 1.7 | 0.00 | 0.13 | 0.01 | 99 | 1009.5 |
| 20260903152402 | 70 | 237 | 0.9 | 1.7 | 0.00 | 0.13 | 0.01 | 99 | 1010.1 |
| 20260903151201 | 70 | 240 | 1.7 | 1.7 | 0.00 | 0.12 | 0.00 | 99 | 1009.8 |
| 20260903150004 | 70 | 309 | 0.9 | 1.7 | 0.00 | 0.12 | 0.12 | 99 | 1010.0 |
| 20260903144802 | 70 | 320 | 1.7 | 2.6 | 0.00 | 0.12 | 0.12 | 99 | 1010.0 |
| 20260903143603 | 70 | 258 | 1.7 | 1.7 | 0.00 | 0.12 | 0.12 | 99 | 1009.9 |
| 20260903142402 | 70 | 83 | 0.0 | 0.0 | 0.00 | 0.12 | 0.12 | 99 | 1009.9 |
| 20260903141202 | 70 | 12 | 1.7 | 2.6 | 0.00 | 0.12 | 0.12 | 99 | 1010.1 |
| 20260903140004 | 70 | 57 | 2.6 | 5.2 | 0.00 | 0.12 | 0.12 | 99 | 1009.9 |
| 20260903134803 | 70 | 211 | 2.6 | 4.3 | 0.00 | 0.12 | 0.12 | 99 | 1009.8 |
| 20260903133603 | 70 | 251 | 0.9 | 1.7 | 0.00 | 0.12 | 0.12 | 99 | 1009.5 |
| 20260903132403 | 70 | 353 | 0.0 | 0.0 | 0.00 | 0.12 | 0.12 | 99 | 1009.3 |
| 20260903131202 | 70 | 22 | 0.9 | 1.7 | 0.00 | 0.12 | 0.12 | 99 | 1009.9 |
| 20260903130001 | 70 | 124 | 1.7 | 2.6 | 0.00 | 0.12 | 0.12 | 99 | 1010.2 |
| 20260903124803 | 70 | 108 | 1.7 | 2.6 | 0.00 | 0.12 | 0.12 | 99 | 1010.7 |
| 20260903123604 | 70 | 349 | 4.3 | 6.1 | 0.00 | 0.12 | 0.12 | 99 | 1010.0 |
| 20260903122403 | 70 | 330 | 4.3 | 5.2 | 0.00 | 0.12 | 0.12 | 99 | 1010.5 |
| 20260903121202 | 70 | 175 | 4.3 | 5.2 | 0.00 | 0.12 | 0.12 | 99 | 1010.4 |
| 20260903120003 | 70 | 228 | 1.7 | 2.6 | 0.00 | 0.12 | 0.12 | 99 | 1010.5 |
| 20260903114801 | 70 | 114 | 0.0 | 0.9 | 0.00 | 0.12 | 0.12 | 99 | 1010.7 |
| 20260903113601 | 70 | 40 | 0.0 | 0.0 | 0.00 | 0.12 | 0.12 | 99 | 1011.0 |
| 20260903112403 | 70 | 305 | 1.7 | 2.6 | 0.00 | 0.12 | 0.12 | 99 | 1011.3 |
| 20260903111202 | 70 | 99 | 1.7 | 4.3 | 0.00 | 0.12 | 0.12 | 99 | 1011.4 |
| 20260903110002 | 70 | 65 | 2.6 | 2.6 | 0.01 | 0.12 | 0.12 | 99 | 1011.3 |
| 20260903104803 | 70 | 294 | 1.7 | 1.7 | 0.01 | 0.12 | 0.12 | 99 | 1010.9 |
| 20260903103604 | 70 | 181 | 0.0 | 0.0 | 0.01 | 0.12 | 0.12 | 99 | 1011.1 |
| 20260903102402 | 70 | 206 | 2.6 | 4.3 | 0.01 | 0.12 | 0.12 | 99 | 1011.1 |
| 20260903101202 | 70 | 300 | 0.9 | 1.7 | 0.01 | 0.12 | 0.12 | 99 | 1011.0 |
| 20260903100002 | 70 | 204 | 1.7 | 1.7 | 0.00 | 0.11 | 0.11 | 99 | 1010.4 |
| 20260903094801 | 70 | 277 | 1.7 | 2.6 | 0.00 | 0.11 | 0.11 | 99 | 1010.6 |
| 20260903093603 | 70 | 276 | 0.0 | 0.9 | 0.00 | 0.11 | 0.11 | 99 | 1010.7 |
| 20260903092403 | 70 | 298 | 2.6 | 4.3 | 0.00 | 0.11 | 0.11 | 99 | 1010.5 |
| 20260903091202 | 70 | 282 | 0.0 | 0.9 | 0.00 | 0.11 | 0.11 | 99 | 1010.7 |
| 20260903090003 | 70 | 185 | 1.7 | 2.6 | 0.00 | 0.11 | 0.11 | 99 | 1010.6 |
| 20260903084803 | 71 | 181 | 0.0 | 0.0 | 0.00 | 0.11 | 0.11 | 99 | 1011.1 |
| 20260903083602 | 70 | 180 | 1.7 | 1.7 | 0.00 | 0.11 | 0.11 | 99 | 1011.6 |
| 20260903082403 | 70 | 191 | 2.6 | 4.3 | 0.00 | 0.11 | 0.11 | 99 | 1011.6 |
| 20260903081203 | 71 | 28 | 1.7 | 2.6 | 0.02 | 0.11 | 0.11 | 99 | 1011.8 |
| 20260903080002 | 71 | 240 | 1.7 | 1.7 | 0.07 | 0.11 | 0.11 | 99 | 1012.3 |
| 20260903074802 | 71 | 241 | 2.6 | 4.3 | 0.08 | 0.11 | 0.11 | 99 | 1012.1 |
| 20260903073602 | 70 | 317 | 0.9 | 1.7 | 0.08 | 0.11 | 0.11 | 99 | 1011.8 |
| 20260903072402 | 71 | 346 | 1.7 | 4.3 | 0.07 | 0.10 | 0.10 | 99 | 1012.4 |
| 20260903071201 | 71 | 265 | 0.0 | 0.0 | 0.06 | 0.09 | 0.09 | 99 | 1012.7 |
| 20260903070001 | 71 | 131 | 1.7 | 4.3 | 0.01 | 0.04 | 0.04 | 99 | 1012.8 |
| 20260903064803 | 72 | 13 | 1.7 | 5.2 | 0.00 | 0.03 | 0.03 | 99 | 1012.6 |
| 20260903063603 | 71 | 140 | 0.0 | 0.0 | 0.00 | 0.03 | 0.03 | 99 | 1012.4 |
| 20260903062401 | 71 | 131 | 0.0 | 0.9 | 0.01 | 0.03 | 0.03 | 97 | 1012.9 |
| 20260903061202 | 72 | 102 | 4.3 | 7.0 | 0.01 | 0.03 | 0.03 | 97 | 1012.6 |
| 20260903060001 | 73 | 17 | 1.7 | 4.3 | 0.01 | 0.03 | 0.03 | 95 | 1012.8 |
| 20260903054802 | 73 | 48 | 4.3 | 6.1 | 0.01 | 0.03 | 0.03 | 98 | 1012.6 |
| 20260903053603 | 74 | 96 | 0.0 | 0.0 | 0.02 | 0.03 | 0.03 | 94 | 1012.5 |
| 20260903052403 | 75 | 119 | 2.6 | 2.6 | 0.01 | 0.02 | 0.02 | 95 | 1011.9 |
| 20260903051202 | 74 | 129 | 1.7 | 2.6 | 0.01 | 0.02 | 0.02 | 94 | 1012.3 |
| 20260903050004 | 75 | 121 | 1.7 | 4.3 | 0.01 | 0.02 | 0.02 | 86 | 1012.3 |
| 20260903044803 | 75 | 113 | 5.2 | 7.8 | 0.01 | 0.02 | 0.02 | 92 | 1011.7 |